Powrót do katalogu

OPS 1527

OV3-1

AktywnyMilitariaPO
NORAD 2150·PAYLOAD·🇺🇸 United States

Wystrzelony Apr 22, 1966 z Vandenberg Space Force Base

Loading…

Następne Przeloty (najbliższe 24 godziny)

TLE

ŚwieżeSource: Space-Track

Epoka: Sep 14, 2026, 14:57 UTC

1 02150U 66034A   26257.62316721  .00009391  00000-0  48534-3 0  9996
2 02150  82.3657 116.0041 1381593 177.0624 183.9782 12.64359920413176

Śledź OPS 1527 w czasie rzeczywistym z AllMySat

Download on the App Store